Time,TemperatureF,DewpointF,PressureIn,WindDirection,WindDirectionDegrees,WindSpeedMPH,WindSpeedGustMPH,Humidity,HourlyPrecipIn,Conditions,Clouds,dailyrainin,SoftwareType,DateUTC
2013-10-07 00:03:00,46.0,43.2,29.77,WSW,248,4.0,6.0,90,0.00,,,0.00,Wunderground v.1.15,2013-10-07 05:03:00,
2013-10-07 00:08:00,46.0,43.2,29.78,WSW,244,5.0,7.0,90,0.00,,,0.00,Wunderground v.1.15,2013-10-07 05:08:00,
2013-10-07 00:13:00,45.9,43.4,29.78,WSW,250,4.0,6.0,91,0.00,,,0.00,Wunderground v.1.15,2013-10-07 05:13:00,
2013-10-07 00:18:00,45.9,43.4,29.78,WSW,250,4.0,6.0,91,0.00,,,0.00,Wunderground v.1.15,2013-10-07 05:18:00,
2013-10-07 00:23:00,45.8,43.3,29.78,SW,236,4.0,7.0,91,0.00,,,0.00,Wunderground v.1.15,2013-10-07 05:23:00,
2013-10-07 00:28:00,45.8,43.3,29.78,West,260,5.0,7.0,91,0.00,,,0.00,Wunderground v.1.15,2013-10-07 05:28:00,
2013-10-07 00:33:00,45.8,43.0,29.78,West,270,5.0,11.0,90,0.00,,,0.00,Wunderground v.1.15,2013-10-07 05:33:00,
2013-10-07 00:38:00,45.8,43.0,29.78,West,262,5.0,11.0,90,0.00,,,0.00,Wunderground v.1.15,2013-10-07 05:38:00,
2013-10-07 00:43:00,45.8,43.0,29.78,WSW,246,5.0,11.0,90,0.00,,,0.00,Wunderground v.1.15,2013-10-07 05:43:00,
2013-10-07 00:48:00,45.8,43.0,29.78,WSW,250,4.0,11.0,90,0.00,,,0.00,Wunderground v.1.15,2013-10-07 05:48:00,
2013-10-07 00:53:00,45.7,42.9,29.78,West,263,4.0,11.0,90,0.00,,,0.00,Wunderground v.1.15,2013-10-07 05:53:00,
2013-10-07 00:58:00,45.7,42.9,29.78,West,265,4.0,11.0,90,0.00,,,0.00,Wunderground v.1.15,2013-10-07 05:58:00,
2013-10-07 01:04:00,45.8,43.0,29.79,West,268,4.0,5.0,90,0.00,,,0.00,Wunderground v.1.15,2013-10-07 06:04:00,
2013-10-07 01:09:00,45.7,42.9,29.78,West,270,5.0,5.0,90,0.00,,,0.00,Wunderground v.1.15,2013-10-07 06:09:00,
2013-10-07 01:14:00,45.7,42.9,29.79,West,263,4.0,5.0,90,0.00,,,0.00,Wunderground v.1.15,2013-10-07 06:14:00,
2013-10-07 01:19:00,45.6,42.8,29.79,West,263,4.0,4.0,90,0.00,,,0.00,Wunderground v.1.15,2013-10-07 06:19:00,
2013-10-07 01:24:00,45.6,42.8,29.80,West,278,4.0,6.0,90,0.00,,,0.00,Wunderground v.1.15,2013-10-07 06:24:00,
2013-10-07 01:29:00,45.5,42.7,29.80,WSW,251,4.0,4.0,90,0.00,,,0.00,Wunderground v.1.15,2013-10-07 06:29:00,
2013-10-07 01:34:00,45.4,42.6,29.80,West,260,4.0,9.0,90,0.00,,,0.00,Wunderground v.1.15,2013-10-07 06:34:00,
2013-10-07 01:39:00,45.3,42.5,29.81,WSW,256,5.0,5.0,90,0.00,,,0.00,Wunderground v.1.15,2013-10-07 06:39:00,
2013-10-07 01:44:00,45.2,42.4,29.81,West,270,5.0,9.0,90,0.00,,,0.00,Wunderground v.1.15,2013-10-07 06:44:00,
2013-10-07 01:49:00,45.1,42.6,29.81,West,273,5.0,5.0,91,0.00,,,0.00,Wunderground v.1.15,2013-10-07 06:49:00,
2013-10-07 01:54:00,45.1,42.6,29.81,West,268,4.0,9.0,91,0.00,,,0.00,Wunderground v.1.15,2013-10-07 06:54:00,
2013-10-07 01:59:00,45.1,42.6,29.81,West,267,5.0,5.0,91,0.00,,,0.00,Wunderground v.1.15,2013-10-07 06:59:00,
2013-10-07 02:05:00,45.1,42.6,29.81,West,272,6.0,7.0,91,0.00,,,0.00,Wunderground v.1.15,2013-10-07 07:05:00,
2013-10-07 02:10:00,45.1,42.6,29.81,West,267,6.0,7.0,91,0.00,,,0.00,Wunderground v.1.15,2013-10-07 07:10:00,
2013-10-07 02:15:00,45.2,42.7,29.81,WSW,253,6.0,8.0,91,0.00,,,0.00,Wunderground v.1.15,2013-10-07 07:15:00,
2013-10-07 02:20:00,45.3,42.5,29.81,West,260,6.0,8.0,90,0.00,,,0.00,Wunderground v.1.15,2013-10-07 07:20:00,
2013-10-07 02:25:00,45.3,42.5,29.81,WNW,286,6.0,8.0,90,0.00,,,0.00,Wunderground v.1.15,2013-10-07 07:25:00,
2013-10-07 02:30:00,45.3,42.5,29.81,West,263,4.0,6.0,90,0.00,,,0.00,Wunderground v.1.15,2013-10-07 07:30:00,
2013-10-07 02:35:00,45.5,42.7,29.82,West,264,4.0,6.0,90,0.00,,,0.00,Wunderground v.1.15,2013-10-07 07:35:00,
2013-10-07 02:40:00,45.7,42.9,29.82,West,275,5.0,6.0,90,0.00,,,0.00,Wunderground v.1.15,2013-10-07 07:40:00,
2013-10-07 02:45:00,45.8,43.0,29.82,West,279,5.0,6.0,90,0.00,,,0.00,Wunderground v.1.15,2013-10-07 07:45:00,
2013-10-07 02:50:00,45.9,43.1,29.82,WSW,251,5.0,7.0,90,0.00,,,0.00,Wunderground v.1.15,2013-10-07 07:50:00,
2013-10-07 02:55:00,46.0,43.2,29.82,West,280,5.0,10.0,90,0.00,,,0.00,Wunderground v.1.15,2013-10-07 07:55:00,
2013-10-07 03:01:00,46.1,43.3,29.82,WNW,284,6.0,7.0,90,0.00,,,0.00,Wunderground v.1.15,2013-10-07 08:01:00,
2013-10-07 03:06:00,46.3,43.5,29.82,WNW,293,6.0,7.0,90,0.00,,,0.00,Wunderground v.1.15,2013-10-07 08:06:00,
2013-10-07 03:11:00,46.4,43.6,29.82,WNW,299,6.0,8.0,90,0.00,,,0.00,Wunderground v.1.15,2013-10-07 08:11:00,
2013-10-07 03:16:00,46.4,43.6,29.82,WSW,258,6.0,11.0,90,0.00,,,0.00,Wunderground v.1.15,2013-10-07 08:16:00,
2013-10-07 03:21:00,46.2,43.4,29.82,WNW,287,5.0,8.0,90,0.00,,,0.00,Wunderground v.1.15,2013-10-07 08:21:00,
2013-10-07 03:26:00,46.0,43.2,29.81,WNW,287,5.0,8.0,90,0.00,,,0.00,Wunderground v.1.15,2013-10-07 08:26:00,
2013-10-07 03:32:00,45.6,42.8,29.81,West,263,5.0,12.0,90,0.00,,,0.00,Wunderground v.1.15,2013-10-07 08:32:00,
2013-10-07 03:37:00,45.3,42.5,29.82,West,269,5.0,12.0,90,0.00,,,0.00,Wunderground v.1.15,2013-10-07 08:37:00,
2013-10-07 03:42:00,45.0,42.2,29.83,West,272,5.0,12.0,90,0.00,,,0.00,Wunderground v.1.15,2013-10-07 08:42:00,
2013-10-07 03:47:00,44.7,42.2,29.83,WSW,257,4.0,12.0,91,0.00,,,0.00,Wunderground v.1.15,2013-10-07 08:47:00,
2013-10-07 03:52:00,44.6,42.1,29.83,West,268,4.0,12.0,91,0.00,,,0.00,Wunderground v.1.15,2013-10-07 08:52:00,
2013-10-07 03:57:00,44.8,42.3,29.83,West,280,5.0,12.0,91,0.00,,,0.00,Wunderground v.1.15,2013-10-07 08:57:00,
2013-10-07 04:03:00,45.1,42.6,29.83,West,263,6.0,8.0,91,0.00,,,0.00,Wunderground v.1.15,2013-10-07 09:03:00,
2013-10-07 04:08:00,45.3,42.8,29.83,West,274,7.0,11.0,91,0.00,,,0.00,Wunderground v.1.15,2013-10-07 09:08:00,
2013-10-07 04:13:00,45.2,42.4,29.83,West,264,8.0,13.0,90,0.00,,,0.00,Wunderground v.1.15,2013-10-07 09:13:00,
2013-10-07 04:18:00,44.9,42.1,29.84,WNW,282,7.0,13.0,90,0.00,,,0.00,Wunderground v.1.15,2013-10-07 09:18:00,
2013-10-07 04:23:00,44.6,41.8,29.84,WNW,295,7.0,8.0,90,0.00,,,0.00,Wunderground v.1.15,2013-10-07 09:23:00,
2013-10-07 04:28:00,44.3,41.6,29.85,West,274,6.0,8.0,90,0.00,,,0.00,Wunderground v.1.15,2013-10-07 09:28:00,
2013-10-07 04:33:00,44.0,41.5,29.85,West,272,5.0,7.0,91,0.00,,,0.00,Wunderground v.1.15,2013-10-07 09:33:00,
2013-10-07 04:38:00,43.7,41.2,29.85,West,263,5.0,7.0,91,0.00,,,0.00,Wunderground v.1.15,2013-10-07 09:38:00,
2013-10-07 04:43:00,43.4,40.9,29.85,West,268,5.0,6.0,91,0.00,,,0.00,Wunderground v.1.15,2013-10-07 09:43:00,
2013-10-07 04:48:00,43.1,40.7,29.84,West,261,4.0,6.0,91,0.00,,,0.00,Wunderground v.1.15,2013-10-07 09:48:00,
2013-10-07 04:53:00,42.9,40.5,29.84,WSW,242,3.0,6.0,91,0.00,,,0.00,Wunderground v.1.15,2013-10-07 09:53:00,
2013-10-07 04:58:00,42.8,40.4,29.84,WSW,239,4.0,6.0,91,0.00,,,0.00,Wunderground v.1.15,2013-10-07 09:58:00,
2013-10-07 05:04:00,42.4,40.0,29.84,WSW,254,4.0,6.0,91,0.00,,,0.00,Wunderground v.1.15,2013-10-07 10:04:00,
2013-10-07 05:09:00,42.2,39.8,29.85,West,265,5.0,5.0,91,0.00,,,0.00,Wunderground v.1.15,2013-10-07 10:09:00,
2013-10-07 05:14:00,42.0,39.6,29.85,West,268,5.0,6.0,91,0.00,,,0.00,Wunderground v.1.15,2013-10-07 10:14:00,
2013-10-07 05:19:00,42.2,39.8,29.86,WSW,239,6.0,7.0,91,0.00,,,0.00,Wunderground v.1.15,2013-10-07 10:19:00,
2013-10-07 05:24:00,42.5,40.1,29.86,West,270,6.0,9.0,91,0.00,,,0.00,Wunderground v.1.15,2013-10-07 10:24:00,
2013-10-07 05:29:00,42.7,40.3,29.86,West,261,6.0,7.0,91,0.00,,,0.00,Wunderground v.1.15,2013-10-07 10:29:00,
2013-10-07 05:34:00,42.7,40.3,29.86,West,263,6.0,13.0,91,0.00,,,0.00,Wunderground v.1.15,2013-10-07 10:34:00,
2013-10-07 05:39:00,42.7,40.3,29.86,SW,232,6.0,13.0,91,0.00,,,0.00,Wunderground v.1.15,2013-10-07 10:39:00,
2013-10-07 05:44:00,42.6,40.2,29.86,West,261,6.0,13.0,91,0.00,,,0.00,Wunderground v.1.15,2013-10-07 10:44:00,
2013-10-07 05:49:00,42.6,40.2,29.86,West,268,7.0,13.0,91,0.00,,,0.00,Wunderground v.1.15,2013-10-07 10:49:00,
2013-10-07 05:54:00,42.7,40.3,29.86,WSW,239,7.0,13.0,91,0.00,,,0.00,Wunderground v.1.15,2013-10-07 10:54:00,
2013-10-07 05:59:00,42.6,40.2,29.86,WSW,246,7.0,7.0,91,0.00,,,0.00,Wunderground v.1.15,2013-10-07 10:59:00,
2013-10-07 06:05:00,42.6,40.2,29.86,WSW,243,6.0,9.0,91,0.00,,,0.00,Wunderground v.1.15,2013-10-07 11:05:00,
2013-10-07 06:10:00,42.6,40.2,29.86,WSW,256,6.0,7.0,91,0.00,,,0.00,Wunderground v.1.15,2013-10-07 11:10:00,
2013-10-07 06:15:00,42.7,40.3,29.86,WSW,248,5.0,7.0,91,0.00,,,0.00,Wunderground v.1.15,2013-10-07 11:15:00,
2013-10-07 06:20:00,42.7,40.3,29.86,West,263,6.0,7.0,91,0.00,,,0.00,Wunderground v.1.15,2013-10-07 11:20:00,
2013-10-07 06:25:00,42.7,40.3,29.87,West,263,6.0,7.0,91,0.00,,,0.00,Wunderground v.1.15,2013-10-07 11:25:00,
2013-10-07 06:30:00,43.0,40.6,29.87,WSW,254,6.0,7.0,91,0.00,,,0.00,Wunderground v.1.15,2013-10-07 11:30:00,
2013-10-07 06:35:00,43.6,41.4,29.87,WSW,246,7.0,11.0,92,0.00,,,0.00,Wunderground v.1.15,2013-10-07 11:35:00,
2013-10-07 06:40:00,44.0,41.5,29.87,WSW,251,7.0,7.0,91,0.00,,,0.00,Wunderground v.1.15,2013-10-07 11:40:00,
2013-10-07 06:45:00,44.3,41.8,29.87,West,270,7.0,8.0,91,0.00,,,0.00,Wunderground v.1.15,2013-10-07 11:45:00,
2013-10-07 06:50:00,44.5,42.0,29.87,West,273,6.0,6.0,91,0.00,,,0.00,Wunderground v.1.15,2013-10-07 11:50:00,
2013-10-07 06:55:00,44.8,42.3,29.87,WSW,256,6.0,9.0,91,0.00,,,0.00,Wunderground v.1.15,2013-10-07 11:55:00,
2013-10-07 07:01:00,45.1,42.6,29.88,WSW,239,5.0,5.0,91,0.00,,,0.00,Wunderground v.1.15,2013-10-07 12:01:00,
2013-10-07 07:06:00,45.4,42.9,29.88,WSW,246,5.0,7.0,91,0.00,,,0.00,Wunderground v.1.15,2013-10-07 12:06:00,
2013-10-07 07:11:00,45.6,43.1,29.88,WSW,247,6.0,9.0,91,0.00,,,0.00,Wunderground v.1.15,2013-10-07 12:11:00,
2013-10-07 07:16:00,45.8,43.3,29.88,West,260,6.0,9.0,91,0.00,,,0.00,Wunderground v.1.15,2013-10-07 12:16:00,
2013-10-07 07:21:00,45.9,43.4,29.88,West,273,7.0,9.0,91,0.00,,,0.00,Wunderground v.1.15,2013-10-07 12:21:00,
2013-10-07 07:26:00,46.1,43.6,29.88,WSW,248,7.0,10.0,91,0.00,,,0.00,Wunderground v.1.15,2013-10-07 12:26:00,
2013-10-07 07:31:00,46.2,43.7,29.89,WSW,240,7.0,11.0,91,0.00,,,0.00,Wunderground v.1.15,2013-10-07 12:31:00,
2013-10-07 07:36:00,46.3,43.8,29.89,SW,222,7.0,11.0,91,0.00,,,0.00,Wunderground v.1.15,2013-10-07 12:36:00,
2013-10-07 07:41:00,46.5,44.0,29.90,West,260,7.0,11.0,91,0.00,,,0.00,Wunderground v.1.15,2013-10-07 12:41:00,
2013-10-07 07:46:00,46.6,44.1,29.90,West,259,8.0,11.0,91,0.00,,,0.00,Wunderground v.1.15,2013-10-07 12:46:00,
2013-10-07 07:51:00,46.7,44.2,29.90,WSW,254,8.0,11.0,91,0.00,,,0.00,Wunderground v.1.15,2013-10-07 12:51:00,
2013-10-07 07:56:00,46.8,44.3,29.90,West,271,8.0,11.0,91,0.00,,,0.00,Wunderground v.1.15,2013-10-07 12:56:00,
2013-10-07 08:02:00,46.9,44.4,29.91,WSW,252,7.0,9.0,91,0.00,,,0.00,Wunderground v.1.15,2013-10-07 13:02:00,
2013-10-07 08:08:00,47.0,44.5,29.91,West,263,8.0,9.0,91,0.00,,,0.00,Wunderground v.1.15,2013-10-07 13:08:00,
2013-10-07 08:13:00,47.2,44.7,29.92,WSW,256,7.0,9.0,91,0.00,,,0.00,Wunderground v.1.15,2013-10-07 13:13:00,
2013-10-07 08:18:00,47.3,44.8,29.92,WSW,248,6.0,9.0,91,0.00,,,0.00,Wunderground v.1.15,2013-10-07 13:18:00,
2013-10-07 08:23:00,47.5,45.0,29.92,West,265,7.0,10.0,91,0.00,,,0.00,Wunderground v.1.15,2013-10-07 13:23:00,
2013-10-07 08:28:00,47.8,45.3,29.92,WSW,257,7.0,10.0,91,0.00,,,0.00,Wunderground v.1.15,2013-10-07 13:28:00,
2013-10-07 08:33:00,48.1,45.9,29.92,West,278,6.0,13.0,92,0.00,,,0.00,Wunderground v.1.15,2013-10-07 13:33:00,
2013-10-07 08:38:00,48.4,46.2,29.93,WSW,240,6.0,13.0,92,0.00,,,0.00,Wunderground v.1.15,2013-10-07 13:38:00,
2013-10-07 08:43:00,48.6,46.4,29.93,West,260,7.0,13.0,92,0.00,,,0.00,Wunderground v.1.15,2013-10-07 13:43:00,
2013-10-07 08:48:00,48.8,46.3,29.93,WSW,247,7.0,13.0,91,0.00,,,0.00,Wunderground v.1.15,2013-10-07 13:48:00,
2013-10-07 08:53:00,49.0,46.5,29.93,West,276,7.0,13.0,91,0.00,,,0.00,Wunderground v.1.15,2013-10-07 13:53:00,
2013-10-07 08:59:00,49.3,46.8,29.93,WSW,249,7.0,11.0,91,0.00,,,0.00,Wunderground v.1.15,2013-10-07 13:59:00,
2013-10-07 09:05:00,49.6,47.1,29.93,West,277,7.0,11.0,91,0.00,,,0.00,Wunderground v.1.15,2013-10-07 14:05:00,
2013-10-07 09:11:00,49.9,47.4,29.94,West,270,7.0,10.0,91,0.00,,,0.00,Wunderground v.1.15,2013-10-07 14:11:00,
2013-10-07 09:17:00,50.2,47.7,29.94,WSW,248,8.0,12.0,91,0.00,,,0.00,Wunderground v.1.15,2013-10-07 14:17:00,
2013-10-07 09:23:00,50.8,48.3,29.94,WSW,252,8.0,9.0,91,0.00,,,0.00,Wunderground v.1.15,2013-10-07 14:23:00,
2013-10-07 09:28:00,51.4,48.6,29.94,West,261,7.0,10.0,90,0.00,,,0.00,Wunderground v.1.15,2013-10-07 14:28:00,
2013-10-07 09:33:00,52.5,49.7,29.94,West,274,7.0,10.0,90,0.00,,,0.00,Wunderground v.1.15,2013-10-07 14:33:00,
2013-10-07 09:38:00,52.6,49.4,29.94,WNW,303,8.0,11.0,89,0.00,,,0.00,Wunderground v.1.15,2013-10-07 14:38:00,
2013-10-07 09:43:00,52.3,48.9,29.95,WNW,285,10.0,17.0,88,0.00,,,0.00,Wunderground v.1.15,2013-10-07 14:43:00,
2013-10-07 09:48:00,52.5,48.7,29.95,WNW,297,12.0,17.0,87,0.00,,,0.00,Wunderground v.1.15,2013-10-07 14:48:00,
2013-10-07 09:53:00,53.4,48.7,29.95,West,264,12.0,14.0,84,0.00,,,0.00,Wunderground v.1.15,2013-10-07 14:53:00,
2013-10-07 09:58:00,53.7,49.0,29.95,West,272,10.0,14.0,84,0.00,,,0.00,Wunderground v.1.15,2013-10-07 14:58:00,
2013-10-07 10:04:00,53.9,48.2,29.96,WNW,286,10.0,15.0,81,0.00,,,0.00,Wunderground v.1.15,2013-10-07 15:04:00,
2013-10-07 10:09:00,54.7,49.3,29.96,WNW,291,10.0,10.0,82,0.00,,,0.00,Wunderground v.1.15,2013-10-07 15:09:00,
2013-10-07 10:14:00,54.9,48.2,29.96,West,277,9.0,14.0,78,0.00,,,0.00,Wunderground v.1.15,2013-10-07 15:14:00,
2013-10-07 10:19:00,55.1,49.0,29.97,NW,308,10.0,12.0,80,0.00,,,0.00,Wunderground v.1.15,2013-10-07 15:19:00,
2013-10-07 10:24:00,55.6,48.2,29.97,NW,306,11.0,12.0,76,0.00,,,0.00,Wunderground v.1.15,2013-10-07 15:24:00,
2013-10-07 10:29:00,55.9,48.4,29.97,NW,308,11.0,13.0,76,0.00,,,0.00,Wunderground v.1.15,2013-10-07 15:29:00,
2013-10-07 10:34:00,56.2,48.4,29.97,West,259,10.0,14.0,75,0.00,,,0.00,Wunderground v.1.15,2013-10-07 15:34:00,
2013-10-07 10:39:00,56.7,48.9,29.97,West,275,11.0,11.0,75,0.00,,,0.00,Wunderground v.1.15,2013-10-07 15:39:00,
2013-10-07 10:44:00,56.9,47.6,29.97,NW,307,11.0,18.0,71,0.00,,,0.00,Wunderground v.1.15,2013-10-07 15:44:00,
2013-10-07 10:49:00,57.6,48.6,29.97,WNW,289,11.0,14.0,72,0.00,,,0.00,Wunderground v.1.15,2013-10-07 15:49:00,
2013-10-07 10:55:00,58.0,49.4,29.97,NW,319,9.0,14.0,73,0.00,,,0.00,Wunderground v.1.15,2013-10-07 15:55:00,
2013-10-07 11:00:00,58.2,48.5,29.98,NNW,346,10.0,10.0,70,0.00,,,0.00,Wunderground v.1.15,2013-10-07 16:00:00,
2013-10-07 11:06:00,58.6,48.5,29.98,West,278,10.0,15.0,69,0.00,,,0.00,Wunderground v.1.15,2013-10-07 16:06:00,
2013-10-07 11:11:00,58.6,48.1,29.98,WNW,293,11.0,19.0,68,0.00,,,0.00,Wunderground v.1.15,2013-10-07 16:11:00,
2013-10-07 11:16:00,59.0,48.1,29.98,NW,308,11.0,19.0,67,0.00,,,0.00,Wunderground v.1.15,2013-10-07 16:16:00,
2013-10-07 11:21:00,59.6,47.8,29.98,WNW,282,10.0,13.0,65,0.00,,,0.00,Wunderground v.1.15,2013-10-07 16:21:00,
2013-10-07 11:27:00,60.2,48.4,29.98,WSW,249,10.0,13.0,65,0.00,,,0.00,Wunderground v.1.15,2013-10-07 16:27:00,
2013-10-07 11:32:00,60.3,48.1,29.98,WNW,287,10.0,21.0,64,0.00,,,0.00,Wunderground v.1.15,2013-10-07 16:32:00,
2013-10-07 11:37:00,60.1,47.5,29.98,NW,312,11.0,21.0,63,0.00,,,0.00,Wunderground v.1.15,2013-10-07 16:37:00,
2013-10-07 11:42:00,60.6,48.4,29.98,West,265,11.0,21.0,64,0.00,,,0.00,Wunderground v.1.15,2013-10-07 16:42:00,
2013-10-07 11:47:00,60.8,47.7,29.98,NW,313,10.0,21.0,62,0.00,,,0.00,Wunderground v.1.15,2013-10-07 16:47:00,
2013-10-07 11:52:00,60.9,47.4,29.99,NW,314,10.0,21.0,61,0.00,,,0.00,Wunderground v.1.15,2013-10-07 16:52:00,
2013-10-07 11:57:00,61.6,48.0,29.99,West,276,10.0,21.0,61,0.00,,,0.00,Wunderground v.1.15,2013-10-07 16:57:00,
2013-10-07 12:03:00,61.5,47.9,29.99,WNW,290,9.0,11.0,61,0.00,,,0.00,Wunderground v.1.15,2013-10-07 17:03:00,
2013-10-07 12:08:00,62.1,47.1,29.99,WNW,291,9.0,11.0,58,0.00,,,0.00,Wunderground v.1.15,2013-10-07 17:08:00,
2013-10-07 12:13:00,62.2,46.8,29.99,West,274,10.0,13.0,57,0.00,,,0.00,Wunderground v.1.15,2013-10-07 17:13:00,
2013-10-07 12:18:00,62.5,48.0,29.99,West,276,10.0,13.0,59,0.00,,,0.00,Wunderground v.1.15,2013-10-07 17:18:00,
2013-10-07 12:23:00,63.1,47.1,29.99,WNW,296,8.0,20.0,56,0.00,,,0.00,Wunderground v.1.15,2013-10-07 17:23:00,
2013-10-07 12:28:00,63.0,47.1,29.99,West,271,11.0,11.0,56,0.00,,,0.00,Wunderground v.1.15,2013-10-07 17:28:00,
2013-10-07 12:33:00,63.5,46.6,29.99,NW,320,12.0,19.0,54,0.00,,,0.00,Wunderground v.1.15,2013-10-07 17:33:00,
2013-10-07 12:38:00,63.3,46.9,29.98,West,259,11.0,11.0,55,0.00,,,0.00,Wunderground v.1.15,2013-10-07 17:38:00,
2013-10-07 12:43:00,63.8,45.8,29.99,WNW,294,10.0,19.0,52,0.00,,,0.00,Wunderground v.1.15,2013-10-07 17:43:00,
2013-10-07 12:48:00,64.8,46.8,29.99,WNW,282,9.0,19.0,52,0.00,,,0.00,Wunderground v.1.15,2013-10-07 17:48:00,
2013-10-07 12:53:00,64.6,46.1,29.99,West,259,9.0,19.0,51,0.00,,,0.00,Wunderground v.1.15,2013-10-07 17:53:00,
2013-10-07 12:59:00,65.1,47.5,29.99,WNW,299,9.0,17.0,53,0.00,,,0.00,Wunderground v.1.15,2013-10-07 17:59:00,
2013-10-07 13:04:00,65.1,46.5,29.99,NW,311,8.0,17.0,51,0.00,,,0.00,Wunderground v.1.15,2013-10-07 18:04:00,
2013-10-07 13:10:00,65.2,46.6,29.99,West,267,9.0,9.0,51,0.00,,,0.00,Wunderground v.1.15,2013-10-07 18:10:00,
2013-10-07 13:15:00,65.3,46.7,29.99,NW,322,9.0,10.0,51,0.00,,,0.00,Wunderground v.1.15,2013-10-07 18:15:00,
2013-10-07 13:20:00,65.4,45.7,29.99,NW,312,11.0,13.0,49,0.00,,,0.00,Wunderground v.1.15,2013-10-07 18:20:00,
2013-10-07 13:26:00,65.6,46.5,29.98,WNW,293,10.0,13.0,50,0.00,,,0.00,Wunderground v.1.15,2013-10-07 18:26:00,
2013-10-07 13:31:00,65.2,46.6,29.98,NW,310,10.0,20.0,51,0.00,,,0.00,Wunderground v.1.15,2013-10-07 18:31:00,
2013-10-07 13:36:00,65.5,45.8,29.98,NW,307,11.0,20.0,49,0.00,,,0.00,Wunderground v.1.15,2013-10-07 18:36:00,
2013-10-07 13:41:00,65.7,47.6,29.98,West,277,9.0,20.0,52,0.00,,,0.00,Wunderground v.1.15,2013-10-07 18:41:00,
2013-10-07 13:46:00,66.0,47.3,29.98,SW,228,8.0,20.0,51,0.00,,,0.00,Wunderground v.1.15,2013-10-07 18:46:00,
2013-10-07 13:51:00,66.1,46.9,29.98,West,274,10.0,20.0,50,0.00,,,0.00,Wunderground v.1.15,2013-10-07 18:51:00,
2013-10-07 13:57:00,65.8,46.6,29.98,West,280,11.0,20.0,50,0.00,,,0.00,Wunderground v.1.15,2013-10-07 18:57:00,
2013-10-07 14:03:00,66.0,47.3,29.98,WSW,254,12.0,14.0,51,0.00,,,0.00,Wunderground v.1.15,2013-10-07 19:03:00,
2013-10-07 14:08:00,66.5,47.3,29.98,West,272,11.0,14.0,50,0.00,,,0.00,Wunderground v.1.15,2013-10-07 19:08:00,
2013-10-07 14:13:00,66.7,47.5,29.98,WSW,257,10.0,18.0,50,0.00,,,0.00,Wunderground v.1.15,2013-10-07 19:13:00,
2013-10-07 14:18:00,66.7,47.5,29.98,WNW,287,11.0,18.0,50,0.00,,,0.00,Wunderground v.1.15,2013-10-07 19:18:00,
2013-10-07 14:23:00,67.2,47.4,29.98,NW,306,11.0,14.0,49,0.00,,,0.00,Wunderground v.1.15,2013-10-07 19:23:00,
2013-10-07 14:29:00,67.3,47.5,29.98,NW,308,12.0,12.0,49,0.00,,,0.00,Wunderground v.1.15,2013-10-07 19:29:00,
2013-10-07 14:34:00,67.6,47.2,29.98,SW,235,10.0,22.0,48,0.00,,,0.00,Wunderground v.1.15,2013-10-07 19:34:00,
2013-10-07 14:39:00,67.5,47.1,29.98,WNW,301,10.0,10.0,48,0.00,,,0.00,Wunderground v.1.15,2013-10-07 19:39:00,
2013-10-07 14:44:00,67.8,47.4,29.98,WNW,292,10.0,22.0,48,0.00,,,0.00,Wunderground v.1.15,2013-10-07 19:44:00,
2013-10-07 14:49:00,67.6,47.2,29.98,WSW,251,10.0,22.0,48,0.00,,,0.00,Wunderground v.1.15,2013-10-07 19:49:00,
2013-10-07 14:54:00,68.0,47.0,29.98,WNW,284,12.0,22.0,47,0.00,,,0.00,Wunderground v.1.15,2013-10-07 19:54:00,
2013-10-07 14:59:00,68.1,47.1,29.98,West,264,9.0,11.0,47,0.00,,,0.00,Wunderground v.1.15,2013-10-07 19:59:00,
2013-10-07 15:05:00,68.1,47.7,29.98,WSW,252,9.0,15.0,48,0.00,,,0.00,Wunderground v.1.15,2013-10-07 20:05:00,
2013-10-07 15:10:00,68.3,48.4,29.98,WNW,294,11.0,13.0,49,0.00,,,0.00,Wunderground v.1.15,2013-10-07 20:10:00,
2013-10-07 15:15:00,68.8,47.7,29.98,West,265,9.0,13.0,47,0.00,,,0.00,Wunderground v.1.15,2013-10-07 20:15:00,
2013-10-07 15:20:00,68.8,47.7,29.98,West,261,9.0,9.0,47,0.00,,,0.00,Wunderground v.1.15,2013-10-07 20:20:00,
2013-10-07 15:25:00,68.9,47.8,29.98,WSW,256,9.0,13.0,47,0.00,,,0.00,Wunderground v.1.15,2013-10-07 20:25:00,
2013-10-07 15:30:00,68.6,47.6,29.98,SW,235,9.0,12.0,47,0.00,,,0.00,Wunderground v.1.15,2013-10-07 20:30:00,
2013-10-07 15:35:00,68.6,47.6,29.98,West,278,10.0,12.0,47,0.00,,,0.00,Wunderground v.1.15,2013-10-07 20:35:00,
2013-10-07 15:41:00,68.5,47.5,29.98,WNW,289,10.0,11.0,47,0.00,,,0.00,Wunderground v.1.15,2013-10-07 20:41:00,
2013-10-07 15:46:00,68.6,47.6,29.98,West,271,9.0,13.0,47,0.00,,,0.00,Wunderground v.1.15,2013-10-07 20:46:00,
2013-10-07 15:51:00,68.6,47.6,29.98,WNW,295,10.0,11.0,47,0.00,,,0.00,Wunderground v.1.15,2013-10-07 20:51:00,
2013-10-07 15:56:00,68.6,47.0,29.98,WSW,255,11.0,11.0,46,0.00,,,0.00,Wunderground v.1.15,2013-10-07 20:56:00,
2013-10-07 16:02:00,68.5,46.9,29.98,West,279,10.0,14.0,46,0.00,,,0.00,Wunderground v.1.15,2013-10-07 21:02:00,
2013-10-07 16:07:00,68.8,47.2,29.98,WNW,289,9.0,14.0,46,0.00,,,0.00,Wunderground v.1.15,2013-10-07 21:07:00,
2013-10-07 16:13:00,68.7,47.1,29.98,West,272,9.0,11.0,46,0.00,,,0.00,Wunderground v.1.15,2013-10-07 21:13:00,
2013-10-07 16:18:00,68.8,47.7,29.98,West,259,10.0,13.0,47,0.00,,,0.00,Wunderground v.1.15,2013-10-07 21:18:00,
2013-10-07 16:23:00,68.8,47.2,29.98,West,265,9.0,12.0,46,0.00,,,0.00,Wunderground v.1.15,2013-10-07 21:23:00,
2013-10-07 16:28:00,68.7,47.6,29.98,SW,235,9.0,13.0,47,0.00,,,0.00,Wunderground v.1.15,2013-10-07 21:28:00,
2013-10-07 16:33:00,68.9,47.8,29.98,WSW,254,9.0,19.0,47,0.00,,,0.00,Wunderground v.1.15,2013-10-07 21:33:00,
2013-10-07 16:38:00,68.8,47.2,29.98,West,263,8.0,19.0,46,0.00,,,0.00,Wunderground v.1.15,2013-10-07 21:38:00,
2013-10-07 16:43:00,68.5,46.9,29.98,WSW,247,9.0,19.0,46,0.00,,,0.00,Wunderground v.1.15,2013-10-07 21:43:00,
2013-10-07 16:48:00,68.2,47.2,29.98,SW,233,9.0,19.0,47,0.00,,,0.00,Wunderground v.1.15,2013-10-07 21:48:00,
2013-10-07 16:53:00,68.3,47.3,29.98,WNW,291,9.0,19.0,47,0.00,,,0.00,Wunderground v.1.15,2013-10-07 21:53:00,
2013-10-07 16:59:00,68.6,47.0,29.98,West,265,8.0,10.0,46,0.00,,,0.00,Wunderground v.1.15,2013-10-07 21:59:00,
2013-10-07 17:05:00,68.8,47.2,29.98,WNW,287,9.0,12.0,46,0.00,,,0.00,Wunderground v.1.15,2013-10-07 22:05:00,
2013-10-07 17:10:00,68.9,47.3,29.98,WSW,237,9.0,11.0,46,0.00,,,0.00,Wunderground v.1.15,2013-10-07 22:10:00,
2013-10-07 17:15:00,69.0,47.4,29.98,West,265,8.0,17.0,46,0.00,,,0.00,Wunderground v.1.15,2013-10-07 22:15:00,
2013-10-07 17:21:00,68.6,47.0,29.98,WNW,283,9.0,10.0,46,0.00,,,0.00,Wunderground v.1.15,2013-10-07 22:21:00,
2013-10-07 17:26:00,68.6,47.6,29.98,WSW,239,9.0,10.0,47,0.00,,,0.00,Wunderground v.1.15,2013-10-07 22:26:00,
2013-10-07 17:31:00,68.6,47.0,29.98,WSW,256,8.0,17.0,46,0.00,,,0.00,Wunderground v.1.15,2013-10-07 22:31:00,
2013-10-07 17:36:00,68.5,46.9,29.99,West,278,8.0,17.0,46,0.00,,,0.00,Wunderground v.1.15,2013-10-07 22:36:00,
2013-10-07 17:41:00,68.2,46.6,29.99,West,281,7.0,17.0,46,0.00,,,0.00,Wunderground v.1.15,2013-10-07 22:41:00,
2013-10-07 17:46:00,67.8,46.8,29.99,WSW,255,6.0,17.0,47,0.00,,,0.00,Wunderground v.1.15,2013-10-07 22:46:00,
2013-10-07 17:51:00,67.5,47.1,29.99,West,262,6.0,17.0,48,0.00,,,0.00,Wunderground v.1.15,2013-10-07 22:51:00,
2013-10-07 17:56:00,67.1,47.3,29.99,West,273,6.0,17.0,49,0.00,,,0.00,Wunderground v.1.15,2013-10-07 22:56:00,
2013-10-07 18:02:00,66.5,47.8,29.99,WSW,250,5.0,6.0,51,0.00,,,0.00,Wunderground v.1.15,2013-10-07 23:02:00,
2013-10-07 18:07:00,66.0,47.9,29.99,WSW,246,5.0,6.0,52,0.00,,,0.00,Wunderground v.1.15,2013-10-07 23:07:00,
2013-10-07 18:12:00,65.4,47.8,29.99,WSW,246,5.0,5.0,53,0.00,,,0.00,Wunderground v.1.15,2013-10-07 23:12:00,
2013-10-07 18:17:00,64.5,48.0,30.00,SW,231,4.0,5.0,55,0.00,,,0.00,Wunderground v.1.15,2013-10-07 23:17:00,
2013-10-07 18:23:00,63.5,48.0,30.00,WSW,252,4.0,5.0,57,0.00,,,0.00,Wunderground v.1.15,2013-10-07 23:23:00,
2013-10-07 18:28:00,62.6,47.6,30.00,WSW,246,4.0,5.0,58,0.00,,,0.00,Wunderground v.1.15,2013-10-07 23:28:00,
2013-10-07 18:33:00,61.7,47.2,30.00,WSW,256,4.0,18.0,59,0.00,,,0.00,Wunderground v.1.15,2013-10-07 23:33:00,
2013-10-07 18:38:00,60.7,47.2,30.00,WSW,245,4.0,18.0,61,0.00,,,0.00,Wunderground v.1.15,2013-10-07 23:38:00,
2013-10-07 18:43:00,59.9,47.3,30.00,WSW,244,4.0,18.0,63,0.00,,,0.00,Wunderground v.1.15,2013-10-07 23:43:00,
2013-10-07 18:48:00,59.4,47.6,30.00,WSW,243,3.0,18.0,65,0.00,,,0.00,Wunderground v.1.15,2013-10-07 23:48:00,
2013-10-07 18:53:00,58.8,47.5,30.00,WSW,243,4.0,18.0,66,0.00,,,0.00,Wunderground v.1.15,2013-10-07 23:53:00,
2013-10-07 18:58:00,58.2,47.3,30.00,WSW,237,4.0,18.0,67,0.00,,,0.00,Wunderground v.1.15,2013-10-07 23:58:00,
2013-10-07 19:04:00,57.6,47.5,30.00,WSW,239,3.0,4.0,69,0.00,,,0.00,Wunderground v.1.15,2013-10-08 00:04:00,
2013-10-07 19:10:00,57.2,47.5,30.00,SW,235,3.0,4.0,70,0.00,,,0.00,Wunderground v.1.15,2013-10-08 00:10:00,
2013-10-07 19:15:00,56.7,47.4,30.00,SW,236,4.0,4.0,71,0.00,,,0.00,Wunderground v.1.15,2013-10-08 00:15:00,
2013-10-07 19:20:00,56.3,47.4,30.01,SW,236,4.0,4.0,72,0.00,,,0.00,Wunderground v.1.15,2013-10-08 00:20:00,
2013-10-07 19:25:00,55.9,47.4,30.01,SW,231,4.0,4.0,73,0.00,,,0.00,Wunderground v.1.15,2013-10-08 00:25:00,
2013-10-07 19:30:00,55.7,47.5,30.01,SW,236,3.0,7.0,74,0.00,,,0.00,Wunderground v.1.15,2013-10-08 00:30:00,
2013-10-07 19:36:00,55.5,47.3,30.01,SW,229,3.0,7.0,74,0.00,,,0.00,Wunderground v.1.15,2013-10-08 00:36:00,
2013-10-07 19:41:00,55.0,47.2,30.01,SW,233,3.0,7.0,75,0.00,,,0.00,Wunderground v.1.15,2013-10-08 00:41:00,
2013-10-07 19:46:00,54.7,47.3,30.01,SW,235,3.0,7.0,76,0.00,,,0.00,Wunderground v.1.15,2013-10-08 00:46:00,
2013-10-07 19:52:00,54.6,47.5,30.01,SW,229,3.0,7.0,77,0.00,,,0.00,Wunderground v.1.15,2013-10-08 00:52:00,
2013-10-07 19:57:00,54.6,47.2,30.01,SW,230,4.0,7.0,76,0.00,,,0.00,Wunderground v.1.15,2013-10-08 00:57:00,
2013-10-07 20:03:00,54.4,47.3,30.02,SW,235,3.0,4.0,77,0.00,,,0.00,Wunderground v.1.15,2013-10-08 01:03:00,
2013-10-07 20:08:00,54.4,47.3,30.02,WSW,239,3.0,4.0,77,0.00,,,0.00,Wunderground v.1.15,2013-10-08 01:08:00,
2013-10-07 20:13:00,54.3,47.2,30.02,SW,226,3.0,3.0,77,0.00,,,0.00,Wunderground v.1.15,2013-10-08 01:13:00,
2013-10-07 20:18:00,54.0,47.3,30.02,SW,229,2.0,2.0,78,0.00,,,0.00,Wunderground v.1.15,2013-10-08 01:18:00,
2013-10-07 20:24:00,54.0,47.3,30.02,SW,235,2.0,4.0,78,0.00,,,0.00,Wunderground v.1.15,2013-10-08 01:24:00,
2013-10-07 20:29:00,54.0,47.3,30.03,WSW,252,3.0,5.0,78,0.00,,,0.00,Wunderground v.1.15,2013-10-08 01:29:00,
2013-10-07 20:35:00,54.0,47.3,30.03,SW,228,4.0,5.0,78,0.00,,,0.00,Wunderground v.1.15,2013-10-08 01:35:00,
2013-10-07 20:40:00,54.0,47.3,30.03,SW,236,3.0,4.0,78,0.00,,,0.00,Wunderground v.1.15,2013-10-08 01:40:00,
2013-10-07 20:45:00,54.1,47.4,30.03,SW,219,3.0,4.0,78,0.00,,,0.00,Wunderground v.1.15,2013-10-08 01:45:00,
2013-10-07 20:50:00,54.0,47.3,30.03,SW,228,3.0,4.0,78,0.00,,,0.00,Wunderground v.1.15,2013-10-08 01:50:00,
2013-10-07 20:56:00,53.6,46.9,30.04,SSW,203,3.0,5.0,78,0.00,,,0.00,Wunderground v.1.15,2013-10-08 01:56:00,
2013-10-07 21:02:00,52.8,46.5,30.04,SW,230,2.0,2.0,79,0.00,,,0.00,Wunderground v.1.15,2013-10-08 02:02:00,
2013-10-07 21:07:00,52.5,46.5,30.04,SSW,211,1.0,3.0,80,0.00,,,0.00,Wunderground v.1.15,2013-10-08 02:07:00,
2013-10-07 21:13:00,51.8,46.2,30.04,SW,225,3.0,4.0,81,0.00,,,0.00,Wunderground v.1.15,2013-10-08 02:13:00,
2013-10-07 21:18:00,51.5,46.2,30.04,SW,219,2.0,4.0,82,0.00,,,0.00,Wunderground v.1.15,2013-10-08 02:18:00,
2013-10-07 21:23:00,51.6,46.3,30.04,SW,223,2.0,3.0,82,0.00,,,0.00,Wunderground v.1.15,2013-10-08 02:23:00,
2013-10-07 21:28:00,51.6,46.3,30.04,SW,227,2.0,3.0,82,0.00,,,0.00,Wunderground v.1.15,2013-10-08 02:28:00,
2013-10-07 21:33:00,51.3,46.0,30.05,SW,222,2.0,2.0,82,0.00,,,0.00,Wunderground v.1.15,2013-10-08 02:33:00,
2013-10-07 21:38:00,51.3,46.3,30.05,SW,228,2.0,2.0,83,0.00,,,0.00,Wunderground v.1.15,2013-10-08 02:38:00,
2013-10-07 21:43:00,51.6,46.6,30.05,SW,218,3.0,4.0,83,0.00,,,0.00,Wunderground v.1.15,2013-10-08 02:43:00,
2013-10-07 21:49:00,52.1,46.8,30.05,SW,229,3.0,5.0,82,0.00,,,0.00,Wunderground v.1.15,2013-10-08 02:49:00,
2013-10-07 21:54:00,52.3,47.0,30.05,SW,222,3.0,5.0,82,0.00,,,0.00,Wunderground v.1.15,2013-10-08 02:54:00,
2013-10-07 21:59:00,52.3,46.6,30.05,SW,230,2.0,2.0,81,0.00,,,0.00,Wunderground v.1.15,2013-10-08 02:59:00,
2013-10-07 22:05:00,52.1,46.8,30.05,SW,226,1.0,2.0,82,0.00,,,0.00,Wunderground v.1.15,2013-10-08 03:05:00,
2013-10-07 22:10:00,51.6,46.3,30.06,SSW,201,1.0,2.0,82,0.00,,,0.00,Wunderground v.1.15,2013-10-08 03:10:00,
2013-10-07 22:15:00,51.1,46.1,30.06,SW,216,2.0,4.0,83,0.00,,,0.00,Wunderground v.1.15,2013-10-08 03:15:00,
2013-10-07 22:21:00,50.6,45.9,30.06,SW,227,2.0,2.0,84,0.00,,,0.00,Wunderground v.1.15,2013-10-08 03:21:00,
2013-10-07 22:26:00,50.3,45.6,30.06,SW,226,2.0,2.0,84,0.00,,,0.00,Wunderground v.1.15,2013-10-08 03:26:00,
2013-10-07 22:31:00,50.1,45.8,30.06,SW,220,2.0,5.0,85,0.00,,,0.00,Wunderground v.1.15,2013-10-08 03:31:00,
2013-10-07 22:37:00,50.1,45.8,30.06,SW,232,2.0,5.0,85,0.00,,,0.00,Wunderground v.1.15,2013-10-08 03:37:00,
2013-10-07 22:42:00,50.0,45.7,30.06,WSW,239,2.0,5.0,85,0.00,,,0.00,Wunderground v.1.15,2013-10-08 03:42:00,
2013-10-07 22:48:00,50.0,46.0,30.06,SW,227,1.0,5.0,86,0.00,,,0.00,Wunderground v.1.15,2013-10-08 03:48:00,
2013-10-07 22:53:00,49.9,45.6,30.06,SW,235,1.0,5.0,85,0.00,,,0.00,Wunderground v.1.15,2013-10-08 03:53:00,
2013-10-07 22:58:00,50.0,45.7,30.06,SW,233,2.0,5.0,85,0.00,,,0.00,Wunderground v.1.15,2013-10-08 03:58:00,
2013-10-07 23:01:00,50.1,45.8,30.06,SW,229,2.0,4.0,85,0.00,,,0.00,Wunderground v.1.15,2013-10-08 04:01:00,
2013-10-07 23:02:00,50.1,45.8,30.07,SW,225,2.0,4.0,85,0.00,,,0.00,Wunderground v.1.15,2013-10-08 04:02:00,
2013-10-07 23:04:00,50.2,45.9,30.07,SW,226,3.0,4.0,85,0.00,,,0.00,Wunderground v.1.15,2013-10-08 04:04:00,
2013-10-07 23:05:00,50.3,46.0,30.07,SW,219,3.0,4.0,85,0.00,,,0.00,Wunderground v.1.15,2013-10-08 04:05:00,
2013-10-07 23:06:00,50.3,46.0,30.07,SW,222,3.0,4.0,85,0.00,,,0.00,Wunderground v.1.15,2013-10-08 04:06:00,
2013-10-07 23:10:00,50.2,45.9,30.07,SSW,211,3.0,3.0,85,0.00,,,0.00,Wunderground v.1.15,2013-10-08 04:10:00,
2013-10-07 23:15:00,49.9,45.6,30.07,SW,222,3.0,3.0,85,0.00,,,0.00,Wunderground v.1.15,2013-10-08 04:15:00,
2013-10-07 23:20:00,49.7,45.7,30.07,SSW,211,3.0,4.0,86,0.00,,,0.00,Wunderground v.1.15,2013-10-08 04:20:00,
2013-10-07 23:25:00,49.6,45.6,30.07,SW,231,3.0,4.0,86,0.00,,,0.00,Wunderground v.1.15,2013-10-08 04:25:00,
2013-10-07 23:31:00,49.5,45.5,30.07,SW,222,3.0,5.0,86,0.00,,,0.00,Wunderground v.1.15,2013-10-08 04:31:00,
2013-10-07 23:36:00,49.5,45.5,30.07,SW,235,3.0,5.0,86,0.00,,,0.00,Wunderground v.1.15,2013-10-08 04:36:00,
2013-10-07 23:41:00,49.5,45.5,30.07,WSW,242,3.0,5.0,86,0.00,,,0.00,Wunderground v.1.15,2013-10-08 04:41:00,
2013-10-07 23:46:00,49.7,45.7,30.07,SW,229,3.0,5.0,86,0.00,,,0.00,Wunderground v.1.15,2013-10-08 04:46:00,
2013-10-07 23:51:00,49.9,45.6,30.07,SW,228,4.0,5.0,85,0.00,,,0.00,Wunderground v.1.15,2013-10-08 04:51:00,
2013-10-07 23:56:00,49.9,45.6,30.07,SW,232,4.0,5.0,85,0.00,,,0.00,Wunderground v.1.15,2013-10-08 04:56:00,